[[{"header":{"parameterUnit":"m.s-1","parameterCategory":1,"la1":30.2991,"la2":30.254,"lo1":-89.0895,"lo2":-89.0444,"dy":0.0017,"dx":0.0017,"nx":28,"ny":28,"refTime":"2024-04-26T09:00:00:Z","depth":0,"parameterNumber":2,"parameterNumberName":"U-component_of_WINDS"},"data":[0,0,0,0,0,0,0,0,0,0,0,0,0,0,0,0,0,0,0,0,0,0,0,0,0,0,0,0,0,0,0,0,0,0,0,0,0,0,0,0,0,0,0,0,0,0,0,0,0,0,0,0,0,0,0,0,0,0,-6.8506,-6.8507,0,-6.8545,-6.8545,-6.8546,-6.8452,-6.8449,-6.8446,-6.8443,-6.8479,-6.8482,-6.8486,0,0,0,0,0,0,0,0,0,0,0,0,0,-6.8349,-6.8353,-6.8506,-6.8507,-6.8507,-6.8545,-6.8545,-6.8546,-6.8452,-6.8449,-6.8445,-6.8442,-6.8477,-6.8482,-6.8486,0,0,0,0,0,0,0,0,0,0,0,0,0,-6.8406,-6.8354,-6.8506,-6.8465,-6.8462,-6.8545,-6.8545,-6.8546,-6.8453,-6.8449,-6.8444,-6.844,-6.8476,-6.8481,-6.8487,-6.861,0,0,-6.8504,-6.8506,0,0,0,0,0,0,0,0,-6.8402,-6.8411,-6.8471,-6.8468,-6.8465,-6.8489,-6.8503,-6.8567,-6.8454,-6.8457,-6.8443,-6.8438,-6.8485,-6.849,-6.8507,-6.8611,-6.8613,-6.8504,-6.8507,-6.851,-6.8511,0,0,0,0,0,0,0,-6.8399,-6.8409,-6.8521,-6.8472,-6.8468,-6.8444,-6.8447,-6.8515,-6.8495,-6.8456,-6.8449,-6.8455,-6.8483,-6.8502,-6.8507,-6.8613,-6.8504,-6.8509,-6.8512,-6.8514,-6.882,-6.8824,0,0,0,0,0,0,-6.84,-6.8407,-6.852,-6.8523,-6.8422,-6.8451,-6.8454,-6.8486,-6.8494,-6.8491,-6.8459,-6.8451,-6.8494,-6.85,-6.8508,-6.865,-6.851,-6.8515,-6.8518,-6.8815,-6.8821,-6.8826,0,0,0,0,0,0,-6.8397,-6.8412,-6.8519,-6.8463,-6.8475,-6.8458,-6.8494,-6.8489,-6.8507,-6.8497,-6.8492,-6.8482,-6.8491,-6.85,-6.8585,-6.865,-6.8517,-6.8523,-6.8809,-6.8817,-6.8823,-6.8937,0,0,0,0,0,0,-6.8393,-6.8411,-6.8458,-6.8465,-6.8478,-6.8596,-6.8499,-6.8493,-6.8518,-6.8507,-6.8517,-6.8514,-6.8488,-6.8577,-6.8591,-6.8655,-6.8527,-6.8803,-6.8813,-6.8821,-6.8928,-6.8948,-6.8965,0,0,0,0,0,-6.8388,-6.8488,-6.8461,-6.8475,-6.8537,-6.86,-6.8608,-6.8577,-6.8523,-6.857,-6.8563,-6.8514,-6.8642,-6.8587,-6.8601,-6.8668,-6.8799,-6.881,-6.882,-6.8919,-6.8944,-6.8964,0,0,0,0,0,0,-6.8486,-6.8488,-6.8458,-6.8563,-6.8583,-6.8584,-6.8641,-6.8604,-6.8638,-6.8626,-6.8586,-6.8589,-6.8681,-6.8684,-6.8622,-6.8788,-6.8711,-6.8725,-6.8782,-6.8805,-6.8823,-6.8818,-6.8531,0,0,0,0,0,-6.8521,-6.8574,-6.8572,-6.8665,-6.8676,-6.8658,-6.8685,-6.866,-6.8678,-6.8685,-6.8684,-6.8703,-6.8747,-6.8777,-6.8817,-6.893,-6.8929,-6.8983,-6.9002,-6.9017,-6.9028,-6.9086,-6.911,-6.8861,-6.8861,-6.8861,0,0,-6.8591,-6.8599,-6.8634,-6.8685,-6.8697,-6.8751,-6.8665,-6.8726,-6.8765,-6.8694,-6.8773,-6.8775,-6.8793,-6.8892,-6.8935,-6.8896,-6.9098,-6.9031,-6.9043,-6.9046,-6.91,-6.9123,-6.9144,-6.8869,-6.8867,-6.8866,0,0,-6.8746,-6.8759,-6.8837,-6.8852,-6.8872,-6.886,-6.8879,-6.8888,-6.8886,-6.8967,-6.8914,-6.896,-6.9038,-6.9052,-6.907,-6.9235,-6.919,-6.925,-6.9344,-6.9402,-6.9421,-6.9438,-6.9494,-6.9515,-6.9262,-6.9262,-6.9263,0,-6.883,-6.8911,-6.8881,-6.8946,-6.8969,-6.891,-6.8988,-6.9004,-6.9036,-6.9053,-6.901,-6.9107,-6.9115,-6.9216,-6.9257,-6.9274,-6.9293,-6.9246,-6.9421,-6.9438,-6.9453,-6.9506,-6.9528,-6.9269,-6.9268,-6.9268,-6.9267,0,-6.9012,-6.907,-6.913,-6.9165,-6.9195,-6.9267,-6.9246,-6.9281,-6.9255,-6.9247,-6.933,-6.9338,-6.9379,-6.9402,-6.9377,-6.95,-6.9475,-6.9428,-6.9349,-6.9484,-6.9533,-6.9553,-6.9279,-6.9276,-6.9274,-6.9273,0,0,-6.9225,-6.9245,-6.9267,-6.9282,-6.9302,-6.9345,-6.9415,-6.9456,-6.9485,-6.9512,-6.9566,-6.9636,-6.9592,-6.9613,-6.9589,-6.964,-6.9768,-6.9586,-6.9586,-6.9617,-6.9901,-6.9933,-6.9957,-6.9741,-6.9744,-6.9747,-6.9898,0,-6.9376,-6.9495,-6.9472,-6.9587,-6.9639,-6.9586,-6.9646,-6.9664,-6.966,-6.9702,-6.9697,-6.9745,-6.9687,-6.9698,-6.9747,-6.9742,-6.9823,-6.9731,-6.9788,-6.9791,-6.9781,-6.9983,-7.0017,-7.0159,-6.9918,-6.9921,-6.9923,0,-6.9567,-6.9601,-6.9723,-6.9735,-6.9756,-6.981,-6.9846,-6.9889,-6.9909,-6.9902,-6.9927,-6.9895,-6.9962,-6.9888,-6.9979,-6.9917,-6.994,-6.9942,-6.9946,-6.9946,-6.9862,-6.9985,-7.0204,-7.0224,-6.9954,-6.9951,-6.9949,0,-6.9706,-6.9783,-6.9865,-6.988,-6.9898,-6.9937,-6.9946,-6.9962,-6.9989,-7.0021,-7.0038,-7.0078,-7.0099,-7.013,-7.0108,-7.0057,-7.0203,-7.0127,-7.0197,-7.0197,-7.0225,-7.0223,-7.0447,-7.0248,-7.0248,-7.0248,-7.0247,0,-6.9874,-6.9949,-6.9928,-6.9978,-7.0061,-7.0034,-7.0117,-7.012,-7.0135,-7.0184,-7.0142,-7.0188,-7.0159,-7.0204,-7.0188,-7.0265,-7.0276,-7.0271,-7.0264,-7.0272,-7.0272,-7.0282,-7.027,-7.0253,-7.0252,-7.0251,-7.025,0,-7.004,-7.003,-7.0115,-7.0127,-7.0131,-7.0192,-7.02,-7.0247,-7.0241,-7.0304,-7.0317,-7.0307,-7.0358,-7.0341,-7.0395,-7.0384,-7.0481,-7.0465,-7.0474,-7.0468,-7.0538,-7.053,-7.0773,-7.0802,-7.0588,-7.0591,-7.0592,0,-7.0146,-7.0203,-7.0221,-7.0252,-7.0265,-7.0315,-7.0342,-7.0319,-7.035,-7.0378,-7.0421,-7.0468,-7.0504,-7.0586,-7.0583,-7.0624,-7.0606,-7.0688,-7.0611,-7.0616,-7.0602,-7.0597,-7.0602,-7.0701,-7.0704,-7.0706,-7.0708,0,-7.0334,-7.0326,-7.0368,-7.041,-7.0445,-7.0476,-7.0503,-7.053,-7.0509,-7.0545,-7.0597,-7.0625,-7.0681,-7.0727,-7.0765,-7.0773,-7.0736,-7.0733,-7.0751,-7.0756,-7.0758,-7.0754,-7.0511,-7.0726,-7.0724,-7.0723,-7.0722,-7.0721,-7.047,-7.0518,-7.0539,-7.0588,-7.0606,-7.0633,-7.0677,-7.0678,-7.0721,-7.0765,-7.075,-7.0809,-7.0828,-7.0875,-7.0889,-7.0934,-7.0902,-7.0928,-7.0934,-7.094,-7.0947,-7.0755,-7.0941,-7.0941,-7.094,-7.094,-7.0939,0,-7.0652,-7.0664,-7.071,-7.075,-7.0788,-7.0755,-7.0783,-7.0817,-7.0869,-7.0892,-7.0929,-7.0988,-7.1034,-7.1036,-7.1079,-7.1114,-7.1098,-7.1125,-7.112,-7.1122,-7.0975,-7.0954,-7.1137,-7.1137,-7.1137,-7.1137,-7.1137,-7.1137,-7.0751,-7.083,-7.0826,-7.0914,-7.0924,-7.0983,-7.1002,-7.1026,-7.1044,-7.1112,-7.115,-7.1153,-7.1167,-7.121,-7.125,-7.125,-7.1265,-7.1298,-7.1291,-7.1153,-7.1133,-7.1114,-7.1093,-7.1303,-7.1303,-7.1434,-7.1435,-7.1436]},{"header":{"parameterUnit":"m.s-1","parameterCategory":1,"la1":30.2991,"la2":30.254,"lo1":-89.0895,"lo2":-89.0444,"dy":0.0017,"dx":0.0017,"nx":28,"ny":28,"refTime":"2024-04-26T09:00:00:Z","depth":0,"parameterNumber":3,"parameterNumberName":"V-component_of_WINDS"},"data":[0,0,0,0,0,0,0,0,0,0,0,0,0,0,0,0,0,0,0,0,0,0,0,0,0,0,0,0,0,0,0,0,0,0,0,0,0,0,0,0,0,0,0,0,0,0,0,0,0,0,0,0,0,0,0,0,0,0,4.4317,4.4317,0,4.4384,4.4385,4.4386,4.4367,4.4366,4.4364,4.4363,4.4426,4.4429,4.4432,0,0,0,0,0,0,0,0,0,0,0,0,0,4.4167,4.417,4.4317,4.4317,4.4318,4.4384,4.4385,4.4386,4.4367,4.4366,4.4364,4.4362,4.4425,4.4429,4.4432,0,0,0,0,0,0,0,0,0,0,0,0,0,4.4233,4.4171,4.4316,4.4317,4.4318,4.4384,4.4385,4.4386,4.4368,4.4366,4.4363,4.4362,4.4424,4.4428,4.4433,4.45,0,0,4.4446,4.4448,0,0,0,0,0,0,0,0,4.4229,4.4238,4.4316,4.4317,4.4318,4.4365,4.4356,4.4424,4.4368,4.4348,4.4363,4.4361,4.4407,4.4413,4.443,4.4503,4.4506,4.4446,4.4449,4.4451,4.4452,0,0,0,0,0,0,0,4.4225,4.4235,4.4343,4.4317,4.4318,4.4313,4.432,4.4368,4.4388,4.435,4.4349,4.4357,4.4407,4.4425,4.4431,4.4507,4.4446,4.445,4.4453,4.4455,4.4642,4.4644,0,0,0,0,0,0,4.422,4.4232,4.4341,4.4345,4.4268,4.4317,4.4325,4.4352,4.4388,4.4391,4.4359,4.4356,4.4419,4.4426,4.4433,4.4516,4.4451,4.4455,4.4458,4.464,4.4643,4.4645,0,0,0,0,0,0,4.4217,4.423,4.4338,4.4288,4.4302,4.4322,4.4352,4.4354,4.4373,4.4395,4.4397,4.4374,4.4418,4.4427,4.4485,4.4518,4.4457,4.4461,4.4637,4.4641,4.4644,4.4681,0,0,0,0,0,0,4.4213,4.4229,4.4256,4.4289,4.4304,4.439,4.4354,4.4357,4.4381,4.4378,4.441,4.4413,4.4417,4.4478,4.4489,4.4523,4.4465,4.4634,4.4639,4.4643,4.4677,4.4686,4.4693,0,0,0,0,0,4.4207,4.4261,4.4257,4.427,4.4338,4.4392,4.44,4.4405,4.4384,4.441,4.4425,4.4412,4.4513,4.4484,4.4496,4.4532,4.4632,4.4637,4.4642,4.4674,4.4684,4.4693,0,0,0,0,0,0,4.4228,4.4266,4.4261,4.4328,4.4357,4.4389,4.4422,4.4416,4.445,4.4445,4.4449,4.4456,4.4515,4.453,4.4497,4.4601,4.4569,4.4577,4.4589,4.4599,4.4607,4.4601,4.4468,0,0,0,0,0,4.4241,4.4283,4.4313,4.4369,4.4384,4.4401,4.4424,4.4426,4.4456,4.4467,4.4486,4.4513,4.4552,4.4576,4.4612,4.468,4.4687,4.4711,4.4718,4.4725,4.4731,4.4769,4.478,4.4662,4.4662,4.4662,0,0,4.4266,4.4292,4.4318,4.4374,4.4397,4.4439,4.4411,4.4456,4.4487,4.4473,4.453,4.4545,4.4576,4.464,4.4668,4.4653,4.4766,4.4732,4.4736,4.4739,4.4775,4.4787,4.4796,4.4666,4.4665,4.4665,0,0,4.4335,4.4359,4.4409,4.4434,4.4471,4.4482,4.4494,4.4528,4.4538,4.4596,4.4587,4.4623,4.4688,4.4712,4.4732,4.4814,4.4803,4.4826,4.4866,4.4903,4.4912,4.492,4.495,4.496,4.4832,4.4832,4.4832,0,4.4361,4.4427,4.4435,4.4483,4.4508,4.4501,4.4551,4.4574,4.4619,4.4636,4.462,4.4704,4.4724,4.4793,4.4814,4.4831,4.4844,4.4821,4.4911,4.4919,4.4927,4.4954,4.4965,4.4835,4.4835,4.4834,4.4834,0,4.4458,4.4503,4.4539,4.4587,4.4616,4.4665,4.468,4.4708,4.4709,4.4722,4.4782,4.4807,4.4849,4.4866,4.4865,4.4936,4.4925,4.491,4.4878,4.494,4.4966,4.4977,4.4838,4.4837,4.4837,4.4836,0,0,4.4537,4.4593,4.4605,4.4628,4.467,4.4704,4.4753,4.4797,4.4822,4.4854,4.4895,4.4952,4.4939,4.4963,4.4965,4.4998,4.5062,4.4978,4.4979,4.4993,4.5142,4.5152,4.5165,4.5057,4.5059,4.506,4.5139,0,4.4609,4.4697,4.4708,4.4786,4.4829,4.4825,4.4867,4.4897,4.4912,4.4949,4.4964,4.5005,4.4985,4.4999,4.5031,4.5047,4.5092,4.5042,4.5093,4.5094,4.5084,4.5178,4.5189,4.5262,4.5149,4.5151,4.5152,0,4.4703,4.4743,4.4826,4.4864,4.4882,4.4921,4.4963,4.5,4.5033,4.5042,4.507,4.507,4.5119,4.5088,4.5156,4.5123,4.5144,4.5156,4.5159,4.5162,4.5126,4.5183,4.5285,4.5296,4.5169,4.5167,4.5166,0,4.4753,4.4826,4.4886,4.4905,4.4952,4.4979,4.4999,4.5032,4.5059,4.5095,4.5113,4.5154,4.5176,4.5208,4.5218,4.5194,4.5287,4.5256,4.5294,4.5294,4.5311,4.531,4.5417,4.5328,4.5328,4.5327,4.5327,0,4.4831,4.4882,4.4909,4.4946,4.5003,4.5016,4.5071,4.509,4.512,4.5159,4.5158,4.5195,4.5207,4.5246,4.5254,4.531,4.532,4.5327,4.5328,4.5327,4.5326,4.5339,4.5334,4.533,4.533,4.5329,4.5329,0,4.4895,4.4915,4.498,4.5021,4.5032,4.5073,4.5107,4.5142,4.5157,4.5207,4.522,4.5243,4.5289,4.5304,4.5358,4.5364,4.5429,4.5426,4.5418,4.5418,4.5455,4.5451,4.5574,4.5591,4.5491,4.5492,4.5493,0,4.4943,4.4982,4.5029,4.5057,4.5079,4.5123,4.5152,4.5166,4.5196,4.524,4.5269,4.5316,4.5353,4.5426,4.5447,4.5489,4.5487,4.5527,4.5493,4.549,4.5487,4.5484,4.5488,4.5533,4.5534,4.5535,4.5535,0,4.5026,4.5035,4.5077,4.5124,4.5159,4.5196,4.5231,4.5254,4.5273,4.5306,4.5355,4.5385,4.5442,4.5488,4.5531,4.555,4.5546,4.5547,4.5558,4.5555,4.5549,4.5553,4.5435,4.5543,4.5542,4.5542,4.5541,4.5541,4.5082,4.5118,4.5158,4.5205,4.5235,4.5269,4.5305,4.5327,4.5368,4.5418,4.5424,4.5476,4.5511,4.557,4.5591,4.5632,4.562,4.5636,4.5639,4.5643,4.5646,4.5544,4.564,4.5639,4.5639,4.5639,4.5639,0,4.5165,4.5191,4.5236,4.5287,4.5325,4.5322,4.5362,4.5393,4.544,4.5474,4.5512,4.5569,4.5614,4.564,4.5685,4.5712,4.5712,4.5724,4.5721,4.5726,4.5654,4.564,4.5724,4.5724,4.5724,4.5724,4.5724,4.5724,4.5212,4.5274,4.5288,4.5364,4.5389,4.5443,4.5466,4.5497,4.5525,4.5589,4.5628,4.5646,4.5677,4.5725,4.5766,4.5773,4.5789,4.5802,4.5807,4.5739,4.573,4.5722,4.5709,4.5806,4.5806,4.5875,4.5876,4.5877]}]]